Regional Weather Roundup
Issued by NWS Portland, ME

Home | Current Version | Previous Version | Text Only | Print | Product List | Glossary On
Versions: 1 2 3 4 5 6 7 8 9 10 11 12 13 14 15 16 17 18 19 20 21 22 23 24 25 26 27 28 29 30 31 32 33 34 35 36 37 38 39 40 41 42 43 44 45 46 47 48 49 50
000
ASUS41 KGYX 271510
RWRGYX
WEATHER ROUNDUP FOR MAINE AND NEW HAMPSHIRE
NATIONAL WEATHER SERVICE GRAY ME
1000 AM EST SAT DEC 27 2014

MEZ002-005-006-010-012-015-018-020-021-024-026-027-029-271600-
MAINE

CITY           SKY/WX    TMP DP  RH WIND       PRES   REMARKS
PORTLAND       SUNNY     43  32  65 W7        30.17S
SANFORD        SUNNY     45  28  53 W7        30.17S
BAR HARBOR     SUNNY     45  32  61 W8        30.13R
WISCASSET      SUNNY     40  32  73 CALM      30.18R
ROCKLAND       SUNNY     39  30  70 W3        30.15R
FRYEBURG       SUNNY     45  29  53 VRB3      30.14S
LEWISTONAUBURN SUNNY     37  30  75 CALM      30.15S
AUGUSTA        SUNNY     42  29  59 SW6       30.15R
WATERVILLE     SUNNY     43  27  52 SW7       30.11R
BANGOR         PTSUNNY   43  29  57 W9        30.13R
GREENVILLE       N/A     36  27  69 VRB5      30.04R
MILLINOCKET    CLOUDY    40  29  64 W8        30.09R
HOULTON        MOSUNNY   39  22  50 NW14G25   30.03R
PRESQUE ISLE   MOSUNNY   37  19  48 NW13      30.03R
FRENCHVILLE    SUNNY     30  16  56 NW14G23   30.00R WCI  19
CARIBOU        SUNNY     34  21  59 NW8       30.02R
$$

NHZ002-005-008-009-011-012-014-271600-
NEW HAMPSHIRE

CITY           SKY/WX    TMP DP  RH WIND       PRES   REMARKS
PORTSMOUTH     MOSUNNY   44  30  59 SW8       30.17S
ROCHESTER      SUNNY     46  30  53 NW13G20   30.16S
NASHUA         SUNNY     45  30  55 CALM      30.21S
MANCHESTER     MOSUNNY   40  29  64 S6        30.19S
CONCORD        SUNNY     40  31  70 CALM      30.19S
PLYMOUTH       FAIR      39  34  84 CALM      30.16S
BERLIN         PTSUNNY   38  28  67 VRB3      30.13R
WHITEFIELD     PTSUNNY   40  28  62 SW7       30.15S
JAFFREY        SUNNY     39  29  67 SW3       30.19R
KEENE          SUNNY     34  30  86 CALM      30.21S
LEBANON        CLOUDY    34  29  82 CALM      30.19R
MT WASHINGTON  NOT AVBL
$$

VTZ005-007-008-271600-
VERMONT

CITY           SKY/WX    TMP DP  RH WIND       PRES   REMARKS
ST JOHNSBURY     N/A     36  31  82 MISG      30.15S
MONTPELIER     CLOUDY    38  30  73 SE3       30.19R
BURLINGTON     CLOUDY    40  29  64 S6        30.18S
$$

MAZ007-012-024-CTZ003-RIZ002-NYZ038-NYZ072-271600-
SOUTHERN NEW ENGLAND AND NY

CITY           SKY/WX    TMP DP  RH WIND       PRES   REMARKS
BOSTON         MOSUNNY   45  30  55 W10       30.22R
WORCESTER      SUNNY     42  30  62 W13       30.19R
NANTUCKET      SUNNY     49  35  58 W10       30.24R
PROVIDENCE     MOSUNNY   46  30  53 W7        30.24R
HARTFORD       PTSUNNY   41  31  67 S5        30.24R
ALBANY         CLOUDY    36  30  79 CALM      30.24R
NEW YORK CITY  PTSUNNY   48  32  53 NW3       30.26S
$$

ANZ081-ANZ082-ANZ150-NHZ014-MEZ023>029-271600-
COASTAL MARINE OBSERVATIONS

STATION/POSITION TIME  TEMP    WIND        PRES    WAVE
                       AIR SEA DIR/SP/G            HT/PER
                 (UTC) (F)     (DEG/KT/KT) (MB)    (FT/S)
MOUNT DESERT ROC 1500   44                 1020.1R
MATINICUS ROCK   1500          270/ 15/ 16 1020.7R
PORTLAND WX BUOY 1450   41 42  290/  6/  8 1021.6R   3/15
WELLS            1400   41 41  300/  7/ 11 1020.8R
ISLE OF SHOALS   1500   42     260/ 11/ 12 1021.5R
JEFFREYS LEDGE   1421      48                N/A     3/14
CASHES LEDGE BUO 1450   45 48  260/  8/ 10 1021.6R   3/15
$$

.............KEY..............
   WCI - WIND CHILL
   TC  - TEMPERATURE IN CELSIUS
   VSB - VISIBILITY IN MILES
   HX  - HEAT INDEX
   FAIR- INDICATES FEW OR NO CLOUDS BELOW 12,000 FT, WITH NO
         SIGNIFICANT WEATHER AND/OR OBSTRUCTIONS TO VISIBILITY.




USA.gov is the U.S. government's official web portal to all federal, state and local government web resources and services.